When you browse on this site, cookies collect data to enhance your experience and personalize the content and advertising you see.
Visit our Privacy Policy to learn more. By continuing to use the site, you agree to this use of cookies and data.
  • In Hungary
  • List of Countries
  • For 7 days
  • Water Temperature
  • Weather Map
  • News
  • Weather Widgets
  • user-avatar
    Login

    Hourly Weather Whitchurch-Stouffville

    Today, 21 November, Thursday

    Time Temperature Precipitation Wind Pressure Humidity
    00:00 +1°C° 0 mm 1 mps 738 mmHg 96%
    01:00 +1°C° 0 mm 1 mps 738 mmHg 96%
    02:00 +1°C° 0 mm 1 mps 738 mmHg 95%
    03:00 +1°C° 0 mm 1 mps 738 mmHg 95%
    04:00 0°C° 0 mm 1 mps 737 mmHg 94%
    05:00 0°C° 0 mm 1 mps 737 mmHg 95%
    06:00 -2°C° 0 mm 2 mps 737 mmHg 96%
    07:00 -2°C° 0 mm 2 mps 737 mmHg 96%
    08:00 -1°C° 0 mm 3 mps 737 mmHg 96%
    09:00 0°C° 0 mm 3 mps 736 mmHg 96%
    10:00 0°C° 0 mm 4 mps 736 mmHg 95%
    11:00 0°C° 0 mm 4 mps 735 mmHg 94%
    12:00 +1°C° 0 mm 5 mps 734 mmHg 92%
    13:00 +1°C° 0 mm 5 mps 733 mmHg 91%
    14:00 +1°C° 0.3 mm 5 mps 732 mmHg 91%
    15:00 +1°C° 0.3 mm 6 mps 730 mmHg 91%
    16:00 +1°C° 0.3 mm 6 mps 729 mmHg 92%
    17:00 +2°C° 0.4 mm 6 mps 728 mmHg 92%
    18:00 +2°C° 0.4 mm 7 mps 727 mmHg 93%
    19:00 +2°C° 0.4 mm 7 mps 726 mmHg 93%
    20:00 +3°C° 0.4 mm 7 mps 726 mmHg 93%
    21:00 +4°C° 0.4 mm 7 mps 725 mmHg 93%
    22:00 +4°C° 0.4 mm 7 mps 724 mmHg 93%
    23:00 +5°C° 0 mm 7 mps 724 mmHg 90%

    Tomorrow, 22 November, Friday

    Time Temperature Precipitation Wind Pressure Humidity
    00:00 +5°C° 0 mm 7 mps 723 mmHg 87%
    01:00 +5°C° 0 mm 7 mps 723 mmHg 85%
    02:00 +4°C° 0 mm 7 mps 723 mmHg 85%
    03:00 +3°C° 0 mm 7 mps 724 mmHg 84%
    04:00 +2°C° 0 mm 7 mps 724 mmHg 84%
    05:00 0°C° 0 mm 7 mps 725 mmHg 83%
    06:00 -1°C° 0 mm 8 mps 726 mmHg 82%
    07:00 -4°C° 0 mm 9 mps 727 mmHg 82%
    08:00 -4°C° 0 mm 9 mps 727 mmHg 79%
    09:00 -4°C° 0 mm 9 mps 728 mmHg 77%
    10:00 -4°C° 0 mm 9 mps 729 mmHg 75%
    11:00 -4°C° 0 mm 9 mps 729 mmHg 71%
    12:00 -4°C° 0 mm 9 mps 730 mmHg 68%
    13:00 -4°C° 0 mm 9 mps 730 mmHg 64%
    14:00 -4°C° 0 mm 8 mps 731 mmHg 64%
    15:00 -4°C° 0 mm 7 mps 731 mmHg 63%
    16:00 -4°C° 0 mm 6 mps 732 mmHg 63%
    17:00 -5°C° 0 mm 6 mps 732 mmHg 65%
    18:00 -5°C° 0 mm 5 mps 732 mmHg 67%
    19:00 -6°C° 0 mm 5 mps 733 mmHg 69%
    20:00 -6°C° 0 mm 5 mps 733 mmHg 72%
    21:00 -4°C° 0 mm 4 mps 733 mmHg 75%
    22:00 -4°C° 0 mm 4 mps 733 mmHg 78%
    23:00 -4°C° 0 mm 4 mps 733 mmHg 80%

    Day after tomorrow, 23 November, Saturday

    Time Temperature Precipitation Wind Pressure Humidity
    00:00 -4°C° 0 mm 3 mps 733 mmHg 82%
    01:00 -4°C° 0 mm 3 mps 733 mmHg 83%
    02:00 -4°C° 0 mm 3 mps 733 mmHg 84%
    03:00 -3°C° 0 mm 2 mps 733 mmHg 84%
    04:00 -3°C° 0 mm 2 mps 732 mmHg 84%
    05:00 -3°C° 0 mm 2 mps 732 mmHg 84%
    06:00 -3°C° 0 mm 2 mps 732 mmHg 84%
    07:00 -3°C° 0 mm 2 mps 732 mmHg 84%
    08:00 -2°C° 0 mm 2 mps 732 mmHg 79%
    09:00 -1°C° 0 mm 3 mps 731 mmHg 75%
    10:00 0°C° 0 mm 3 mps 731 mmHg 70%
    11:00 0°C° 0 mm 3 mps 731 mmHg 66%
    12:00 +2°C° 0 mm 2 mps 730 mmHg 62%
    13:00 +3°C° 0 mm 2 mps 729 mmHg 58%
    14:00 +2°C° 0 mm 2 mps 729 mmHg 61%
    15:00 +2°C° 0 mm 2 mps 728 mmHg 63%
    16:00 +1°C° 0 mm 2 mps 727 mmHg 65%
    17:00 0°C° 0 mm 3 mps 726 mmHg 69%
    18:00 -1°C° 0 mm 3 mps 726 mmHg 72%
    19:00 -1°C° 0 mm 3 mps 725 mmHg 75%
    20:00 -2°C° 0.5 mm 4 mps 724 mmHg 80%
    21:00 -2°C° 0.5 mm 5 mps 724 mmHg 86%
    22:00 -1°C° 0.5 mm 5 mps 723 mmHg 91%
    23:00 -1°C° 0.1 mm 5 mps 722 mmHg 92%

    24 November, Sunday

    Time Temperature Precipitation Wind Pressure Humidity
    00:00 -1°C° 0.1 mm 4 mps 721 mmHg 92%
    01:00 0°C° 0.1 mm 3 mps 720 mmHg 93%
    02:00 0°C° 0.4 mm 3 mps 720 mmHg 94%
    03:00 +1°C° 0.4 mm 2 mps 719 mmHg 96%
    04:00 +1°C° 0.4 mm 2 mps 719 mmHg 98%
    05:00 +1°C° 0.8 mm 2 mps 719 mmHg 98%
    06:00 +1°C° 0.8 mm 2 mps 719 mmHg 98%
    07:00 +1°C° 0.8 mm 2 mps 719 mmHg 98%
    08:00 0°C° 0.3 mm 3 mps 719 mmHg 97%
    09:00 -1°C° 0.3 mm 4 mps 719 mmHg 96%
    10:00 -1°C° 0.3 mm 4 mps 719 mmHg 95%
    11:00 -1°C° 0.2 mm 5 mps 719 mmHg 95%
    12:00 -1°C° 0.2 mm 5 mps 719 mmHg 96%
    13:00 -2°C° 0.2 mm 6 mps 719 mmHg 96%
    14:00 -1°C° 0.1 mm 5 mps 720 mmHg 95%
    15:00 -1°C° 0.1 mm 5 mps 720 mmHg 95%
    16:00 -1°C° 0.1 mm 5 mps 720 mmHg 95%
    17:00 -1°C° 0.1 mm 5 mps 721 mmHg 93%
    18:00 -1°C° 0.1 mm 5 mps 721 mmHg 91%
    19:00 -1°C° 0.1 mm 5 mps 722 mmHg 89%
    20:00 -2°C° 0 mm 4 mps 722 mmHg 88%
    21:00 -2°C° 0 mm 4 mps 722 mmHg 88%
    22:00 -3°C° 0 mm 4 mps 722 mmHg 88%
    23:00 -3°C° 0 mm 4 mps 722 mmHg 89%

    25 November, Monday

    Time Temperature Precipitation Wind Pressure Humidity
    00:00 -3°C° 0 mm 4 mps 722 mmHg 89%
    01:00 -3°C° 0 mm 4 mps 723 mmHg 90%
    02:00 -3°C° 0 mm 4 mps 723 mmHg 89%
    03:00 -3°C° 0 mm 4 mps 723 mmHg 88%
    04:00 -3°C° 0 mm 4 mps 724 mmHg 87%
    05:00 -3°C° 0 mm 4 mps 724 mmHg 88%
    06:00 -3°C° 0 mm 4 mps 724 mmHg 89%
    07:00 -3°C° 0 mm 4 mps 725 mmHg 89%
    08:00 -3°C° 0 mm 4 mps 725 mmHg 86%
    09:00 -2°C° 0 mm 4 mps 726 mmHg 83%
    10:00 -1°C° 0 mm 4 mps 726 mmHg 80%
    11:00 0°C° 0 mm 4 mps 726 mmHg 79%
    12:00 0°C° 0 mm 4 mps 726 mmHg 79%
    13:00 +1°C° 0 mm 4 mps 726 mmHg 78%
    14:00 +1°C° 0 mm 4 mps 726 mmHg 80%
    15:00 +1°C° 0 mm 4 mps 726 mmHg 82%
    16:00 +1°C° 0 mm 4 mps 726 mmHg 84%
    17:00 +1°C° 0 mm 4 mps 726 mmHg 86%
    18:00 +1°C° 0 mm 4 mps 727 mmHg 87%
    19:00 +1°C° 0 mm 4 mps 727 mmHg 88%
    20:00 +1°C° 0 mm 4 mps 727 mmHg 89%
    21:00 +1°C° 0 mm 4 mps 727 mmHg 90%
    22:00 +1°C° 0 mm 4 mps 727 mmHg 91%
    23:00 +2°C° 0 mm 3 mps 728 mmHg 92%

    26 November, Tuesday

    Time Temperature Precipitation Wind Pressure Humidity
    00:00 +2°C° 0 mm 3 mps 728 mmHg 93%
    01:00 +2°C° 0 mm 3 mps 728 mmHg 93%
    02:00 +2°C° 0 mm 3 mps 728 mmHg 94%
    03:00 +2°C° 0 mm 3 mps 729 mmHg 94%
    04:00 +2°C° 0 mm 3 mps 729 mmHg 95%
    05:00 +2°C° 0 mm 3 mps 729 mmHg 95%
    06:00 +2°C° 0 mm 3 mps 729 mmHg 96%
    07:00 +2°C° 0 mm 3 mps 730 mmHg 96%
    08:00 +3°C° 0 mm 4 mps 730 mmHg 94%
    09:00 +3°C° 0 mm 4 mps 730 mmHg 92%
    10:00 +4°C° 0 mm 4 mps 731 mmHg 90%
    11:00 +4°C° 0 mm 4 mps 731 mmHg 87%
    12:00 +5°C° 0 mm 4 mps 730 mmHg 84%
    13:00 +5°C° 0 mm 4 mps 730 mmHg 81%
    14:00 +5°C° 0 mm 4 mps 730 mmHg 80%
    15:00 +5°C° 0 mm 4 mps 730 mmHg 79%
    16:00 +5°C° 0 mm 4 mps 730 mmHg 79%
    17:00 +5°C° 0 mm 5 mps 729 mmHg 80%
    18:00 +5°C° 0 mm 5 mps 729 mmHg 81%
    19:00 +5°C° 0 mm 5 mps 729 mmHg 82%
    20:00 +5°C° 0 mm 5 mps 728 mmHg 79%
    21:00 +4°C° 0 mm 6 mps 728 mmHg 76%
    22:00 +4°C° 0 mm 6 mps 727 mmHg 72%
    23:00 +4°C° 0 mm 6 mps 726 mmHg 71%
    Show more